KUIPER-00139

导读 | 豆包AI

KUIPER-00168是美国亚马逊“柯伊伯计划”卫星互联网星座中的一颗近地轨道卫星,于2025年9月25日发射升空。该计划旨在构建覆盖全球的卫星互联网系统,计划部署超3200颗卫星,与SpaceX星链展开市场竞争。作为星座组网过程中的一员,该卫星将助力亚马逊推进第一代星座部署,服务全球互联网接入需求。

Basic Information
目录编号:
65781
目录名称:
KUIPER-00168
国际标识:
2025-217V
轨道中心:
EARTH
卫星名称:
KUIPER-00168
卫星全名:
KUIPER-00139
卫星状态:
在轨 (已飞行242 天)
发射日期:
2025-09-25 UTC
国别 :
美国 (US)
星等 :
--
Orbit Information
数据来源 国际轨道数据 AOE轨道数据
星历时间 2026-05-24T11:56:15+0800
1天前
查看轨道信息
2026-05-22T23:00:00+0800
2天前
查看轨道信息
半长轴 7007.676km 7007.689km
偏心率 0.0000905 0.000083
轨道倾角 51.901° 51.903°
近地点辐角 96.270° 86.475°
升交点赤经 54.357° 61.163°
平近点角 263.836° 348.929°
近地点 628.904km 628.97km
远地点 630.174km 630.134km
周期 97.302分钟 97.302分钟
每日圈数 14.799321 14.799281
Detailed Information
使用方式:
暂无
2D Orbit Map
3D Orbit Map
Orbit Altitude Analysis Chart
Orbit Inclination Analysis Chart
Orbit Comprehensive Analysis Chart
View Comprehensive Chart